[[{"header":{"parameterUnit":"m.s-1","parameterCategory":1,"la1":30.2991,"la2":30.254,"lo1":-89.0895,"lo2":-89.0444,"dy":0.0017,"dx":0.0017,"nx":28,"ny":28,"refTime":"2023-10-05T21:00:00:Z","depth":0,"parameterNumber":2,"parameterNumberName":"U-component_of_WINDS"},"data":[0,0,0,0,0,0,0,0,0,0,0,0,0,0,0,0,0,0,0,0,0,0,0,0,0,0,0,0,0,0,0,0,0,0,0,0,0,0,0,0,0,0,0,0,0,0,0,0,0,0,0,0,0,0,0,0,0,0,-1.5389,-1.5389,0,-1.5443,-1.5444,-1.5445,-1.5442,-1.5442,-1.5441,-1.544,-1.5498,-1.55,-1.5502,0,0,0,0,0,0,0,0,0,0,0,0,0,-1.5284,-1.5286,-1.5389,-1.5389,-1.539,-1.5443,-1.5444,-1.5445,-1.5443,-1.5442,-1.5441,-1.544,-1.5497,-1.55,-1.5503,0,0,0,0,0,0,0,0,0,0,0,0,0,-1.5333,-1.5287,-1.5389,-1.5395,-1.5397,-1.5443,-1.5444,-1.5445,-1.5443,-1.5442,-1.5441,-1.5439,-1.5496,-1.55,-1.5503,-1.5547,0,0,-1.5513,-1.5515,0,0,0,0,0,0,0,0,-1.533,-1.5337,-1.5394,-1.5395,-1.5396,-1.5435,-1.5428,-1.5479,-1.5443,-1.5425,-1.544,-1.5439,-1.5478,-1.5483,-1.5496,-1.555,-1.5552,-1.5514,-1.5516,-1.5517,-1.5518,0,0,0,0,0,0,0,-1.5327,-1.5335,-1.541,-1.5395,-1.5396,-1.5396,-1.5402,-1.5438,-1.5458,-1.5427,-1.5427,-1.5433,-1.5479,-1.5492,-1.5497,-1.5553,-1.5514,-1.5517,-1.5519,-1.552,-1.5644,-1.5646,0,0,0,0,0,0,-1.5322,-1.5332,-1.5409,-1.5412,-1.536,-1.5399,-1.5405,-1.5424,-1.5457,-1.5461,-1.5434,-1.5433,-1.5487,-1.5493,-1.5499,-1.5551,-1.5517,-1.552,-1.5522,-1.5643,-1.5645,-1.5646,0,0,0,0,0,0,-1.532,-1.5329,-1.5407,-1.5372,-1.5382,-1.5402,-1.5423,-1.5425,-1.5439,-1.5463,-1.5466,-1.5444,-1.5487,-1.5494,-1.5535,-1.5553,-1.5522,-1.5525,-1.5642,-1.5644,-1.5645,-1.5657,0,0,0,0,0,0,-1.5317,-1.5328,-1.5345,-1.5372,-1.5384,-1.5441,-1.5424,-1.5427,-1.5445,-1.5444,-1.5473,-1.5477,-1.5486,-1.553,-1.5538,-1.5558,-1.5528,-1.564,-1.5643,-1.5645,-1.5655,-1.5659,-1.5663,0,0,0,0,0,-1.5313,-1.5347,-1.5346,-1.5355,-1.5405,-1.5442,-1.5448,-1.5458,-1.5446,-1.5463,-1.5478,-1.5476,-1.555,-1.5534,-1.5543,-1.5564,-1.5639,-1.5642,-1.5645,-1.5654,-1.5659,-1.5663,0,0,0,0,0,0,-1.5322,-1.535,-1.535,-1.5393,-1.5415,-1.5441,-1.5463,-1.5463,-1.5489,-1.5487,-1.5498,-1.5504,-1.5544,-1.5559,-1.554,-1.5608,-1.5593,-1.5598,-1.5597,-1.5602,-1.5605,-1.5601,-1.553,0,0,0,0,0,-1.5329,-1.5356,-1.538,-1.5416,-1.5427,-1.5443,-1.5459,-1.5464,-1.5488,-1.5497,-1.5515,-1.5538,-1.5567,-1.5585,-1.5613,-1.5658,-1.5664,-1.5677,-1.568,-1.5683,-1.5687,-1.5711,-1.5717,-1.5655,-1.5655,-1.5655,0,0,-1.5343,-1.5362,-1.5379,-1.5418,-1.5435,-1.5463,-1.5451,-1.5481,-1.5502,-1.5502,-1.5541,-1.5555,-1.5581,-1.5624,-1.5643,-1.5637,-1.5706,-1.5687,-1.5689,-1.5692,-1.5714,-1.572,-1.5725,-1.5657,-1.5657,-1.5657,0,0,-1.5384,-1.5401,-1.5433,-1.545,-1.5476,-1.5487,-1.5494,-1.5521,-1.553,-1.5568,-1.5569,-1.5594,-1.5643,-1.5661,-1.5677,-1.5724,-1.5723,-1.5733,-1.5752,-1.5775,-1.578,-1.5784,-1.5799,-1.5805,-1.5737,-1.5737,-1.5737,0,-1.5399,-1.544,-1.5449,-1.5479,-1.5496,-1.5496,-1.5528,-1.5545,-1.5579,-1.5591,-1.5583,-1.5643,-1.5661,-1.5707,-1.5718,-1.5732,-1.574,-1.5729,-1.5778,-1.5783,-1.5787,-1.5802,-1.5808,-1.5738,-1.5737,-1.5737,-1.5737,0,-1.5457,-1.5486,-1.5508,-1.5539,-1.5559,-1.559,-1.5603,-1.5622,-1.5625,-1.5637,-1.5676,-1.5697,-1.5728,-1.574,-1.5744,-1.5786,-1.5781,-1.5776,-1.5761,-1.5793,-1.5807,-1.5813,-1.5739,-1.5739,-1.5738,-1.5738,0,0,-1.5505,-1.554,-1.5548,-1.5561,-1.559,-1.5613,-1.5643,-1.5673,-1.5688,-1.5712,-1.5737,-1.5778,-1.5773,-1.5791,-1.5797,-1.5817,-1.5851,-1.5809,-1.581,-1.5815,-1.5898,-1.5901,-1.5907,-1.5851,-1.5852,-1.5853,-1.5895,0,-1.5547,-1.5601,-1.5609,-1.5656,-1.5682,-1.5682,-1.5709,-1.573,-1.5741,-1.5765,-1.5778,-1.5806,-1.5798,-1.5808,-1.5828,-1.5843,-1.5868,-1.584,-1.5875,-1.5876,-1.5867,-1.5915,-1.5919,-1.5957,-1.5901,-1.5902,-1.5903,0,-1.5604,-1.5628,-1.5677,-1.5701,-1.5712,-1.5736,-1.5763,-1.5786,-1.5809,-1.5816,-1.5835,-1.5839,-1.5871,-1.5855,-1.5899,-1.588,-1.5894,-1.5904,-1.5905,-1.5908,-1.589,-1.5918,-1.597,-1.5975,-1.5912,-1.5911,-1.591,0,-1.5633,-1.5677,-1.5711,-1.5724,-1.5752,-1.5769,-1.5782,-1.5804,-1.582,-1.5845,-1.5855,-1.5883,-1.5898,-1.592,-1.5931,-1.5919,-1.5973,-1.5959,-1.598,-1.5979,-1.599,-1.5989,-1.6044,-1.6002,-1.6002,-1.6002,-1.6002,0,-1.5679,-1.5709,-1.5724,-1.5746,-1.5779,-1.5788,-1.5821,-1.5833,-1.5853,-1.5876,-1.5879,-1.5902,-1.5915,-1.594,-1.5949,-1.5983,-1.599,-1.5996,-1.5998,-1.5995,-1.5994,-1.6004,-1.6002,-1.6003,-1.6003,-1.6003,-1.6002,0,-1.5716,-1.5728,-1.5765,-1.5789,-1.5795,-1.5819,-1.5839,-1.586,-1.5871,-1.5901,-1.5909,-1.5926,-1.5955,-1.5968,-1.6004,-1.601,-1.6048,-1.6049,-1.604,-1.604,-1.6059,-1.6057,-1.6122,-1.6131,-1.6083,-1.6084,-1.6084,0,-1.5744,-1.5767,-1.5792,-1.5808,-1.5821,-1.5846,-1.5863,-1.5873,-1.589,-1.5917,-1.5935,-1.5963,-1.5986,-1.6033,-1.6049,-1.6076,-1.6077,-1.6097,-1.6081,-1.6077,-1.6075,-1.6073,-1.6075,-1.61,-1.6101,-1.6101,-1.6101,0,-1.5792,-1.5797,-1.582,-1.5845,-1.5865,-1.5886,-1.5906,-1.5919,-1.5932,-1.5951,-1.598,-1.5998,-1.6034,-1.6062,-1.609,-1.6104,-1.6105,-1.6106,-1.6112,-1.6109,-1.6103,-1.6105,-1.6047,-1.6105,-1.6104,-1.6104,-1.6104,-1.6104,-1.5825,-1.5845,-1.5865,-1.5891,-1.5907,-1.5925,-1.5945,-1.5958,-1.5982,-1.6011,-1.6016,-1.6046,-1.6068,-1.6106,-1.6121,-1.6145,-1.614,-1.6149,-1.6151,-1.6152,-1.6153,-1.6099,-1.615,-1.615,-1.615,-1.615,-1.615,0,-1.5873,-1.5885,-1.5909,-1.5936,-1.5957,-1.5955,-1.5977,-1.5994,-1.602,-1.604,-1.6062,-1.6095,-1.6122,-1.614,-1.6167,-1.6183,-1.6184,-1.619,-1.6188,-1.6191,-1.6156,-1.6148,-1.6188,-1.6188,-1.6188,-1.6188,-1.6188,-1.6188,-1.59,-1.5932,-1.5939,-1.5979,-1.5992,-1.602,-1.6033,-1.605,-1.6066,-1.6101,-1.6123,-1.6134,-1.6153,-1.6182,-1.6207,-1.6211,-1.6221,-1.6226,-1.6231,-1.6198,-1.6194,-1.619,-1.6182,-1.6229,-1.6229,-1.6263,-1.6264,-1.6264]},{"header":{"parameterUnit":"m.s-1","parameterCategory":1,"la1":30.2991,"la2":30.254,"lo1":-89.0895,"lo2":-89.0444,"dy":0.0017,"dx":0.0017,"nx":28,"ny":28,"refTime":"2023-10-05T21:00:00:Z","depth":0,"parameterNumber":3,"parameterNumberName":"V-component_of_WINDS"},"data":[0,0,0,0,0,0,0,0,0,0,0,0,0,0,0,0,0,0,0,0,0,0,0,0,0,0,0,0,0,0,0,0,0,0,0,0,0,0,0,0,0,0,0,0,0,0,0,0,0,0,0,0,0,0,0,0,0,0,0.4657,0.4657,0,0.4667,0.4667,0.4667,0.4608,0.4606,0.4605,0.4603,0.4617,0.4619,0.462,0,0,0,0,0,0,0,0,0,0,0,0,0,0.459,0.4592,0.4657,0.4657,0.4657,0.4667,0.4667,0.4667,0.4608,0.4606,0.4604,0.4602,0.4616,0.4618,0.4621,0,0,0,0,0,0,0,0,0,0,0,0,0,0.4612,0.4592,0.4657,0.4629,0.4627,0.4667,0.4667,0.4667,0.4609,0.4606,0.4604,0.4601,0.4615,0.4618,0.4621,0.469,0,0,0.463,0.4631,0,0,0,0,0,0,0,0,0.4611,0.4614,0.4633,0.4631,0.4628,0.4634,0.4648,0.4675,0.4609,0.4616,0.4603,0.46,0.4625,0.4627,0.4634,0.469,0.4691,0.463,0.4632,0.4633,0.4634,0,0,0,0,0,0,0,0.4609,0.4614,0.4661,0.4633,0.4631,0.4617,0.4617,0.4653,0.4634,0.4615,0.4611,0.4613,0.4623,0.4631,0.4634,0.4691,0.463,0.4633,0.4634,0.4636,0.4804,0.4807,0,0,0,0,0,0,0.4611,0.4613,0.4661,0.4661,0.4613,0.462,0.462,0.4635,0.4634,0.4631,0.4615,0.461,0.4628,0.4631,0.4634,0.4715,0.4633,0.4636,0.4637,0.4802,0.4805,0.4808,0,0,0,0,0,0,0.461,0.4616,0.466,0.4636,0.464,0.4624,0.464,0.4636,0.4644,0.4633,0.463,0.4627,0.4626,0.463,0.4676,0.4715,0.4637,0.464,0.4798,0.4803,0.4807,0.4877,0,0,0,0,0,0,0.4608,0.4616,0.4641,0.4637,0.4642,0.4701,0.4643,0.4638,0.4649,0.4643,0.4644,0.4642,0.4624,0.4672,0.4679,0.4717,0.4642,0.4795,0.48,0.4805,0.4871,0.4883,0.4893,0,0,0,0,0,0.4606,0.4661,0.4643,0.4649,0.4673,0.4704,0.4707,0.4684,0.4653,0.4678,0.4671,0.4642,0.4709,0.4677,0.4685,0.4724,0.4792,0.4799,0.4805,0.4866,0.488,0.4893,0,0,0,0,0,0,0.4671,0.466,0.4639,0.4694,0.47,0.4693,0.4725,0.47,0.4716,0.471,0.4683,0.4683,0.4734,0.4734,0.4698,0.4791,0.4745,0.4753,0.4789,0.4803,0.4814,0.4813,0.4644,0,0,0,0,0,0.4692,0.4717,0.4706,0.4756,0.4759,0.4742,0.4754,0.4737,0.4742,0.4745,0.4741,0.4748,0.4771,0.4787,0.4807,0.487,0.487,0.4901,0.4912,0.4921,0.4929,0.4963,0.4977,0.4828,0.4828,0.4828,0,0,0.4735,0.4732,0.475,0.4769,0.4771,0.4798,0.4744,0.4776,0.4796,0.475,0.4793,0.479,0.4797,0.4852,0.4876,0.4853,0.497,0.4929,0.4936,0.4939,0.4971,0.4985,0.4997,0.4832,0.4832,0.4831,0,0,0.4828,0.4828,0.4869,0.4873,0.4877,0.4865,0.4875,0.4872,0.4868,0.491,0.4876,0.4901,0.494,0.4947,0.4955,0.505,0.5024,0.5058,0.5115,0.5149,0.5161,0.5171,0.5206,0.5219,0.5065,0.5065,0.5065,0,0.4882,0.4921,0.4894,0.4928,0.4937,0.4895,0.4938,0.4943,0.4954,0.4962,0.4936,0.4985,0.4986,0.5042,0.5066,0.5073,0.5085,0.5058,0.5161,0.5171,0.518,0.5213,0.5227,0.5069,0.5069,0.5068,0.5068,0,0.4987,0.5014,0.5048,0.5058,0.5072,0.511,0.509,0.5107,0.5088,0.5079,0.5123,0.5123,0.5143,0.5155,0.5137,0.5209,0.5195,0.5165,0.5119,0.5199,0.523,0.5242,0.5075,0.5074,0.5072,0.5071,0,0,0.5122,0.5117,0.513,0.5134,0.5135,0.5157,0.5193,0.5211,0.5227,0.5236,0.5267,0.5301,0.5273,0.5283,0.5266,0.5295,0.5372,0.5262,0.5262,0.5283,0.5452,0.5476,0.5491,0.5354,0.5356,0.5358,0.5452,0,0.5213,0.5274,0.5252,0.5315,0.534,0.5301,0.5332,0.5337,0.533,0.5352,0.5344,0.5369,0.533,0.5336,0.5363,0.5357,0.5406,0.5349,0.5384,0.5385,0.5385,0.5506,0.5531,0.562,0.5464,0.5466,0.5467,0,0.5329,0.5341,0.5407,0.5404,0.5414,0.5442,0.5458,0.5478,0.5483,0.5476,0.5487,0.5463,0.5499,0.5453,0.5503,0.5466,0.5478,0.5478,0.548,0.5484,0.5432,0.5515,0.5648,0.5662,0.5486,0.5484,0.5483,0,0.5422,0.5455,0.5499,0.5504,0.5501,0.5523,0.5523,0.5525,0.5538,0.5551,0.5559,0.5577,0.5588,0.5603,0.5585,0.5552,0.5639,0.5591,0.5636,0.5636,0.5657,0.5656,0.5795,0.5663,0.5663,0.5663,0.5662,0,0.5527,0.5569,0.5541,0.5568,0.5614,0.5588,0.5634,0.563,0.5632,0.5659,0.5626,0.5651,0.5626,0.5649,0.5636,0.5681,0.5685,0.5682,0.5678,0.5685,0.5686,0.5694,0.5688,0.5666,0.5665,0.5665,0.5664,0,0.564,0.5622,0.5668,0.5661,0.566,0.5695,0.569,0.5715,0.5705,0.5739,0.5745,0.573,0.5756,0.5739,0.5766,0.5757,0.5816,0.5803,0.5815,0.5811,0.5858,0.5854,0.6008,0.6028,0.5882,0.5883,0.5884,0,0.5709,0.574,0.5737,0.5751,0.5753,0.5778,0.579,0.5765,0.578,0.5788,0.5813,0.5836,0.5853,0.5897,0.5889,0.591,0.5898,0.595,0.5901,0.5908,0.59,0.5899,0.5903,0.5961,0.5963,0.5964,0.5965,0,0.5834,0.5823,0.5842,0.5858,0.5874,0.5885,0.5894,0.5908,0.5884,0.5902,0.5927,0.5941,0.5968,0.5992,0.6009,0.601,0.5985,0.598,0.5992,0.6001,0.6007,0.6006,0.5843,0.5978,0.5976,0.5975,0.5975,0.5974,0.5928,0.5954,0.5955,0.5978,0.5981,0.5991,0.6014,0.6007,0.6027,0.6046,0.6031,0.6062,0.6067,0.6087,0.6091,0.6116,0.6095,0.6112,0.6117,0.6121,0.6129,0.6002,0.6119,0.6119,0.6119,0.6118,0.6118,0,0.6052,0.6051,0.6071,0.6084,0.6102,0.6074,0.6083,0.61,0.6127,0.6133,0.6151,0.6181,0.6204,0.6197,0.6218,0.624,0.6229,0.6246,0.6245,0.6246,0.6145,0.6134,0.6255,0.6255,0.6255,0.6255,0.6255,0.6255,0.6119,0.6162,0.6152,0.6197,0.6195,0.6225,0.6232,0.6241,0.6245,0.628,0.6299,0.6294,0.6295,0.6316,0.6336,0.6334,0.6344,0.6366,0.636,0.6267,0.6253,0.624,0.6229,0.6368,0.6369,0.6459,0.646,0.646]}]]